Regional Weather Roundup
Issued by NWS Green Bay, WI

Home | Current Version | Previous Version | Text Only | Print | Product List | Glossary On
Versions: 1 2 3 4 5 6 7 8 9 10 11 12 13 14 15 16 17 18 19 20 21 22 23 24 25 26 27 28 29 30 31 32 33 34 35 36 37 38 39 40 41 42 43 44 45 46 47 48 49 50
000
ASUS43 KGRB 302059
RWRGRB

NORTH-CENTRAL AND NORTHEAST WISCONSIN REGIONAL WEATHER ROUNDUP
NATIONAL WEATHER SERVICE GREEN BAY WI
300 PM CST FRI JAN 30 2015

WIZ005-009-010>012-018-019-302200-
NORTH CENTRAL WISCONSIN

CITY           SKY/WX    TMP DP  RH WIND       PRES   REMARKS
IRONWOOD       CLOUDY    18   1  49 SW9       30.29F WCI   6
MANITOWISH WTR NOT AVBL
ARBOR VITAE    NOT AVBL
EAGLE RIVER    NOT AVBL
LAND O LAKES   NOT AVBL
RHINELANDER    CLOUDY    17   2  51 SW7       30.31F WCI   8
PHILLIPS       NOT AVBL
ANTIGO         NOT AVBL
TOMAHAWK       NOT AVBL
MERRILL        NOT AVBL
$$

WIZ013-073-302200-
NORTHEAST WISCONSIN

CITY           SKY/WX    TMP DP  RH WIND       PRES   REMARKS
IRON MOUNTAIN  CLOUDY    18   3  52 SW5       30.33F
MARINETTE      CLOUDY    16   5  62 S10       30.41F WCI   3
$$

WIZ017-030-035>037-045-302200-
CENTRAL WISCONSIN

CITY           SKY/WX    TMP DP  RH WIND       PRES   REMARKS
MEDFORD        NOT AVBL
WAUSAU         MOSUNNY   17   4  56 W6        30.35F WCI   9
MOSINEE        MOSUNNY   18   7  62 W8        30.38  WCI   7
MARSHFIELD     PTSUNNY   18   6  59 W6        30.37F WCI  10
WISC RAPIDS    MOSUNNY   20   5  52 S7        30.41F
STEVENS POINT  NOT AVBL
WAUPACA        NOT AVBL
SHAWANO        NOT AVBL
CLINTONVILLE   NOT AVBL
$$

WIZ038-039-048-051-302200-
FOX VALLEY

CITY           SKY/WX    TMP DP  RH WIND       PRES   REMARKS
NWS GREEN BAY  PTSUNNY   21   8  57 SW5       30.43F
APPLETON       MOSUNNY   21   5  49 W6        30.42F
OSHKOSH        SUNNY     22   8  55 SW6       30.42F
FOND DU LAC    SUNNY     22   7  52 W7        30.43F
$$

WIZ022-050-052-302200-
EAST CENTRAL WISCONSIN

CITY           SKY/WX    TMP DP  RH WIND       PRES   REMARKS
STURGEON BAY   PTSUNNY   18   3  53 W3        30.44F
MANITOWOC      NOT AVBL
SHEBOYGAN      MOSUNNY   24   9  52 CALM      30.43F
$$

LMZ563-521-522-541>543-302200-
LAKESHORE

STATION/POSITION TIME  TEMP    WIND        PRES    VSBY  WAVE
                       AIR SEA DIR/SP/G                  HT/PER
                 (UTC) (F)     (DEG/KT/KT) (MB)    (MI)  (FT/S)
SHEBOYGAN LKSHOR 2000   19     110/  7/  8 1032.5F
KEWAUNEE LKSHORE 2000   20     240/  1/  6 1030.2F
NORTHPORT PIER   2000   22     250/  1/  5 1030.5F
SISTER BAY LKSHO 2000   36        CALM       N/A
CHAMBERS ISLAND  2000   17      80/  3/  6 1030.8S
MENOMINEE LKSHOR 2000   15     150/ 10     1030.8F
$$


USA.gov is the U.S. government's official web portal to all federal, state and local government web resources and services.